Regional Weather Roundup
Issued by NWS

Home | Current Version | Previous Version | Text Only | Print | Product List | Glossary On
Versions: 1 2 3 4 5 6 7 8 9 10 11 12 13 14 15 16 17 18 19 20 21 22 23 24 25 26 27 28 29 30 31 32 33 34 35 36 37 38 39 40 41 42 43 44 45 46 47 48 49 50
000
ASCA44 KEWX 191820
RWRMX

LATIN AMERICA AND CARIBBEAN REGIONAL WEATHER ROUNDUP
NATIONAL WEATHER SERVICE AUSTIN/SAN ANTONIO TX
100 PM CDT SAT AUG 19 2017

NOTE: "FAIR" INDICATED FEW OR NO CLOUDS BELOW 12,000 FEET WITH NO
SIGNIFICANT WEATHER AND/OR OBSTRUCTIONS TO VISIBILITY.

BAJA CALIFORNIA

CITY           SKY/WX    TMP DP  RH WIND       PRES   REMARKS
LORETO         PTSUNNY   82  77  83 NE14      29.87F HX  91
LA PAZ         PTSUNNY   90  68  48 S13       29.91  HX  93
MEXICALI       SUNNY     93  68  43 S2        29.84  HX  97
S.J. DEL CABO  PTSUNNY   90  68  48 N12       29.91F HX  93
TIJUANA        MOSUNNY   72  61  68 CALM      30.00F

NORTHWESTERN MEXICO

CITY           SKY/WX    TMP DP  RH WIND       PRES   REMARKS
CULIACAN       PTSUNNY   88  75  66 CALM      29.91  HX  97
DURANGO        CLOUDY    70  57  64 NE7       30.31
GUAYMAS        CLOUDY    90  77  66 CALM      29.86  HX 102
HERMOSILLO     CLOUDY    86  73  66 CALM      29.97  HX  93
CD. JUAREZ     PTSUNNY   77  59  53 E7        30.15
LOS MOCHIS     PTSUNNY   90  73  58 E6        29.92S HX  98
OBREGON        PTSUNNY   88  72  58 SE2       29.90  HX  94

NORTHEASTERN MEXICO

CITY           SKY/WX    TMP DP  RH WIND       PRES   REMARKS
CHIHUAHUA      MOSUNNY   75  63  64 E8        30.20F
MATAMOROS      PTSUNNY   93  73  52 E8        29.97  HX 102
MONCLOVA       MOSUNNY   88  66  48 N8        30.03F HX  90
MONTERREY      MOSUNNY   88  66  48 E6        29.99F HX  90
NUEVO LAREDO   MOSUNNY   91  72  52 E6        29.97  HX  98
PIEDRAS NEGRAS MOSUNNY   93  73  52 E6        30.01F HX 102
REYNOSA        MOSUNNY   93  63  36 SE3       29.96  HX  94
SALTILLO       MOSUNNY   86  68  54 CALM      30.24S
TORREON        MOSUNNY   82  63  51 CALM      30.14F
CD. VICTORIA   SUNNY     93  59  31 S12       29.95  HX  92

WESTERN MEXICO

CITY           SKY/WX    TMP DP  RH WIND       PRES   REMARKS
AGUASCALIENTES PTSUNNY   73  52  46 W2        30.31
COLIMA         PTSUNNY   77  73  88 W7        30.01F
DEL BAJIO      PTSUNNY   73  59  60 SE6       30.34F
GUADALAJARA    PTSUNNY   75  59  57 E8        30.22
MANZANILLO     PTSUNNY   90  77  66 SW12      29.87F HX 102
MAZATLAN       PTSUNNY   90  81  74 S5        29.92F HX 108
P. VALLARTA    MOSUNNY   90  75  62 SW7       29.91F HX 100
URUAPAN        PTSUNNY   75  61  60 S7        30.19F
ZACATECAS      MOSUNNY   72  52  49 CALM      30.35F

CENTRAL MEXICO

CITY           SKY/WX    TMP DP  RH WIND       PRES   REMARKS
CUERNAVACA     MOSUNNY   75  63  64 SE7       30.16
MEXICO CITY    MOSUNNY   70  50  49 W5        30.35F
MORELIA        MOSUNNY   72  57  60 NE5       30.28
POZA RICA      PTSUNNY   90  75  62 NE5       30.01F HX 100
PUEBLA         MOSUNNY   70  48  46 CALM      30.35F
QUERETARO      MOSUNNY   72  55  56 E8        30.34F
S. LUIS POTOSI SUNNY     75  46  35 CALM      30.28F
TAMPICO        MOSUNNY   88  75  66 E12       29.96F HX  97
TOLUCA         MOSUNNY   66  52  59 SW3       30.40F

SOUTHERN MEXICO

CITY           SKY/WX    TMP DP  RH WIND       PRES   REMARKS
ACAPULCO       PTSUNNY   88  77  70 W9        29.98R HX 100
B. DE HUATULCO MOSUNNY  N/A N/A N/A CALM      29.93
OAXACA         MOSUNNY   75  54  46 CALM      30.23F
P. ESCONDIDO   MOSUNNY   86  73  66 SE9       29.98F HX  93
VERACRUZ       MOSUNNY   90  75  62 E5        29.96F HX 100
ZIHUATANEJO      N/A    N/A N/A N/A MISG        N/A

YUCATAN PENINSULA

CITY           SKY/WX    TMP DP  RH WIND       PRES   REMARKS
CAMPECHE       MOSUNNY   90  79  70 E9        29.92F HX 105
CANCUN         MOSUNNY   90  72  55 E12       29.96S HX  96
CHETUMAL       MOSUNNY   93  73  52 CALM      29.92  HX 102
CD. DEL CARMEN MOSUNNY  N/A N/A N/A SE7       29.95
COZUMEL        MOSUNNY   88  79  74 NE12      29.94S HX 102
MERIDA         PTSUNNY   93  70  46 N8        29.95S HX  99
MINATITLAN     MOSUNNY   86  81  84 N12       29.94  HX 102
TAPACHULA      MOSUNNY   90  79  70 SW12      29.85S HX 105
TUX. GUTIERREZ MOSUNNY   82  68  61 CALM      29.98F
VILLAHERMOSA   MOSUNNY   90  75  62 NE14      29.95F HX 100

CENTRAL AMERICA

CITY           SKY/WX    TMP DP  RH WIND       PRES   REMARKS
BELIZE CITY    MOSUNNY   90  79  70 NE10      29.92F HX 105
MANAGUA        PTCLDY    90  73  58 CALM      29.80F HX  98

CARIBBEAN

CITY           SKY/WX    TMP DP  RH WIND       PRES   REMARKS
ARUBA          MOSUNNY   86  75  70 E7        29.74F HX  95
CURACAO        MOSUNNY   86  75  70 E6        29.77F HX  95
KINGSTON       MOSUNNY   90  79  70 S14       29.86F HX 105
NASSAU         PTSUNNY   90  82  79 E10       29.98F HX 111
SAN JUAN       MOSUNNY   88  79  74 NE20G26   29.88F HX 102
SANTO DOMINGO  PTSUNNY   90  79  70 NE15      29.86F HX 105
ST. CROIX      MOSUNNY   88  79  74 E12       29.90  HX 102
ST. KITTS      MOSUNNY   86  79  79 NE13      29.89  HX  99
ST. MAARTEN    SHOWER    82  79  89 MISG      29.89S HX  93
ST. THOMAS     MOSUNNY   88  79  74 E10G16    29.88  HX 102

$$





USA.gov is the U.S. government's official web portal to all federal, state and local government web resources and services.